KD2SIG Weather Reports


time (UTC)temp
C
wind
direction
speed
KPH
gust
KPH
rain 1hr
cm
rain 24hr
cm
rain mn
cm
humidity
%
barometer
mb
20260507010744 6 259 4.8 4.8 0.00 0.99 0.99 90 1011.7
20260507010241 6 249 4.8 8.0 0.00 0.99 0.99 90 1011.7
20260507005738 6 270 3.2 3.2 0.00 0.99 0.99 90 1011.7
20260507005234 6 253 4.8 4.8 0.00 0.99 0.99 89 1011.4
20260507004731 6 277 9.7 11.3 0.00 0.99 0.99 89 1011.6
20260507004229 7 272 1.6 3.2 0.00 0.99 0.99 89 1011.5
20260507003725 7 283 3.2 3.2 0.00 0.99 0.99 89 1011.3
20260507003220 7 284 8.0 9.7 0.00 0.99 0.99 89 1011.3
20260507002717 7 280 4.8 8.0 0.00 0.99 0.99 89 1011.1
20260507002213 7 268 3.2 3.2 0.00 0.99 0.99 89 1011.0
20260507001709 7 268 3.2 3.2 0.00 0.99 0.99 89 1011.1
20260507001207 7 270 1.6 3.2 0.00 0.99 0.99 89 1010.8
20260507000703 7 269 0.0 1.6 0.00 0.99 0.99 88 1010.8
20260507000159 7 289 3.2 3.2 0.00 0.99 0.99 88 1011.1
20260506235656 7 268 3.2 3.2 0.00 0.99 0.99 88 1010.8
20260506235151 7 284 4.8 4.8 0.00 0.99 0.99 87 1010.6
20260506234648 7 271 3.2 3.2 0.00 0.99 0.99 87 1010.6
20260506234145 8 265 1.6 1.6 0.00 0.99 0.99 86 1010.3
20260506233643 8 271 0.0 0.0 0.00 0.99 0.99 86 1010.1
20260506233139 8 265 4.8 4.8 0.00 0.99 0.99 85 1010.4
20260506232636 8 264 1.6 3.2 0.00 0.99 0.99 85 1010.5
20260506232131 8 264 1.6 1.6 0.00 0.99 0.99 85 1010.5
20260506231629 8 258 3.2 3.2 0.00 0.99 0.99 85 1010.6
20260506231127 8 273 3.2 3.2 0.00 0.99 0.99 85 1010.5
20260506230624 8 277 1.6 1.6 0.00 0.99 0.99 85 1010.4
20260506230121 8 274 4.8 8.0 0.00 0.99 0.99 85 1010.6
20260506225617 8 280 1.6 1.6 0.00 0.99 0.99 85 1010.8
20260506225113 8 266 4.8 4.8 0.00 0.99 0.99 85 1010.7
20260506224610 8 267 1.6 3.2 0.00 0.99 0.99 85 1011.0
20260506224107 8 270 1.6 1.6 0.00 0.99 0.99 85 1010.3
20260506223603 8 272 1.6 1.6 0.00 0.99 0.99 85 1010.5
20260506223059 8 252 1.6 1.6 0.00 0.99 0.99 84 1010.6
20260506222556 8 261 4.8 4.8 0.00 0.99 0.99 84 1010.5
20260506222052 8 277 3.2 3.2 0.00 0.99 0.99 84 1010.5
20260506221550 8 258 1.6 3.2 0.00 0.99 0.99 84 1010.6
20260506221048 8 278 4.8 4.8 0.00 0.99 0.99 84 1010.3
20260506220544 8 268 0.0 0.0 0.00 0.99 0.99 84 1010.4
20260506220039 8 281 3.2 3.2 0.00 0.99 0.99 84 1010.3
20260506215537 8 264 3.2 4.8 0.00 0.99 0.99 84 1010.3
20260506215032 8 268 1.6 3.2 0.00 0.99 0.99 85 1010.3
20260506214529 8 269 1.6 3.2 0.00 0.99 0.99 85 1010.5
20260506214027 8 269 3.2 3.2 0.00 0.99 0.99 85 1010.4
20260506213525 8 285 4.8 4.8 0.00 0.99 0.99 85 1010.3
20260506213021 8 286 1.6 3.2 0.00 0.99 0.99 85 1010.2
20260506212518 8 299 1.6 3.2 0.00 0.99 0.99 85 1010.2
20260506212013 8 265 1.6 1.6 0.00 0.99 0.99 86 1010.0
20260506211509 8 248 4.8 4.8 0.00 0.99 0.99 86 1010.0
20260506211007 8 275 1.6 3.2 0.00 0.99 0.99 86 1010.0
20260506210503 8 298 3.2 3.2 0.00 0.99 0.99 86 1009.9
20260506210000 8 281 1.6 1.6 0.00 0.99 0.99 86 1010.0
20260506205456 8 315 1.6 3.2 0.00 0.99 0.99 87 1009.9
20260506204952 8 284 3.2 3.2 0.00 0.99 0.99 87 1010.0
20260506204450 8 304 1.6 1.6 0.00 0.99 0.99 87 1010.0
20260506203947 8 279 0.0 0.0 0.00 0.99 0.99 88 1010.0
20260506203444 8 279 1.6 1.6 0.00 0.99 0.99 88 1010.1
20260506202941 8 300 1.6 3.2 0.00 0.99 0.99 87 1009.9
20260506202438 8 289 1.6 1.6 0.00 0.99 0.99 87 1009.9
20260506201934 8 283 1.6 1.6 0.00 0.99 0.99 87 1010.0
20260506201432 8 324 3.2 3.2 0.00 0.99 0.99 87 1009.6
20260506200929 8 274 0.0 0.0 0.00 0.99 0.99 88 1009.9
20260506200425 8 307 3.2 3.2 0.00 0.99 0.99 89 1009.9
20260506195922 8 286 3.2 3.2 0.00 0.99 0.99 89 1009.8
20260506195419 8 292 1.6 1.6 0.00 0.99 0.99 89 1009.8
20260506194915 8 330 4.8 4.8 0.00 0.99 0.99 90 1009.8
20260506194412 8 277 1.6 1.6 0.00 0.99 0.99 90 1010.0
20260506193909 8 335 4.8 4.8 0.00 0.99 0.99 90 1009.7
20260506193406 8 349 3.2 3.2 0.00 0.99 0.99 91 1009.8
20260506192903 8 57 1.6 3.2 0.00 0.99 0.99 91 1009.9
20260506192400 8 303 1.6 1.6 0.00 0.99 0.99 92 1010.0
20260506191857 7 45 3.2 3.2 0.00 0.99 0.99 92 1009.9
20260506191353 7 358 3.2 3.2 0.00 0.99 0.99 92 1010.1
20260506190850 7 356 4.8 4.8 0.00 0.99 0.99 93 1010.3
20260506190346 7 291 3.2 4.8 0.00 0.99 0.99 93 1010.2
20260506185843 7 348 3.2 3.2 0.00 0.99 0.99 93 1010.2
20260506185340 7 320 3.2 3.2 0.00 0.99 0.99 93 1010.0
20260506184837 7 292 1.6 1.6 0.00 0.99 0.99 94 1010.3
20260506184334 7 355 4.8 4.8 0.00 0.99 0.99 94 1010.2
20260506183832 7 294 0.0 1.6 0.00 0.99 0.99 94 1010.0
20260506183327 7 5 3.2 3.2 0.00 0.99 0.99 94 1010.1
20260506182824 7 310 3.2 3.2 0.00 0.99 0.99 94 1010.2
20260506182321 7 294 0.0 0.0 0.00 0.99 0.99 95 1009.9
20260506181819 7 351 3.2 3.2 0.00 0.99 0.99 95 1010.0
20260506181317 7 24 3.2 3.2 0.00 0.99 0.99 95 1009.8
20260506180814 7 15 1.6 3.2 0.00 0.99 0.99 95 1009.8
20260506180309 7 346 3.2 3.2 0.00 0.99 0.99 96 1009.8
20260506175806 7 135 3.2 3.2 0.00 0.99 0.99 96 1009.7
20260506175306 7 49 4.8 8.0 0.00 0.99 0.99 96 1009.8
20260506174800 7 340 4.8 4.8 0.00 0.99 0.99 96 1009.4
20260506174257 7 15 3.2 3.2 0.00 0.99 0.99 96 1009.5
20260506173755 7 26 8.0 11.3 0.00 0.99 0.99 96 1009.6
20260506173252 7 331 4.8 4.8 0.00 0.99 0.99 96 1009.6
20260506172748 7 293 0.0 0.0 0.00 0.99 0.99 96 1009.7
20260506172245 7 55 4.8 4.8 0.00 0.99 0.99 97 1009.6
20260506171743 7 17 3.2 4.8 0.00 0.99 0.99 97 1009.6
20260506171240 7 6 6.4 8.0 0.00 0.99 0.99 97 1009.6
20260506170738 7 85 4.8 8.0 0.00 0.99 0.99 97 1009.5
20260506170233 7 318 3.2 3.2 0.00 0.99 0.99 97 1009.4
20260506165732 7 299 1.6 1.6 0.00 0.99 0.99 97 1009.9
20260506165229 6 15 4.8 4.8 0.00 0.99 0.99 97 1009.9
20260506164726 7 346 0.0 1.6 0.00 0.99 0.99 97 1009.7
20260506164223 6 82 4.8 4.8 0.00 0.99 0.99 97 1009.9
20260506163720 6 279 1.6 1.6 0.00 0.99 0.99 97 1009.6
20260506163215 7 315 3.2 4.8 0.00 0.99 0.99 97 1009.7
20260506162711 7 319 1.6 3.2 0.18 0.99 0.99 97 1009.8
20260506162208 7 338 3.2 4.8 0.18 0.99 0.99 97 1009.9
20260506161706 6 272 0.0 1.6 0.00 0.97 0.97 97 1009.9
20260506161203 7 89 3.2 4.8 0.00 0.97 0.97 97 1010.0
20260506160700 6 259 0.0 0.0 0.00 0.97 0.97 97 1010.1
20260506160157 6 310 1.6 3.2 0.00 0.97 0.97 97 1010.0
20260506155655 6 288 1.6 1.6 0.00 0.97 0.97 97 1010.1
20260506155152 6 319 1.6 1.6 0.00 0.97 0.97 97 1010.1
20260506153254 6 340 4.8 4.8 0.00 0.97 0.97 97 1010.1
20260506152750 6 282 1.6 1.6 0.00 0.97 0.97 97 1010.2
20260506152248 6 356 1.6 3.2 0.00 0.97 0.97 97 1009.8
20260506151747 6 13 4.8 4.8 0.13 0.97 0.97 97 1009.6
20260506151243 6 297 1.6 3.2 0.13 0.97 0.97 97 1010.0
20260506150740 6 100 3.2 4.8 0.00 0.94 0.94 97 1009.8
20260506150237 6 308 1.6 1.6 0.00 0.94 0.94 97 1009.8
20260506145734 6 330 4.8 4.8 0.00 0.94 0.94 97 1009.7
20260506145230 6 25 3.2 3.2 0.00 0.94 0.94 97 1009.7
20260506144728 6 54 1.6 1.6 0.00 0.94 0.94 97 1009.9
20260506144225 6 36 6.4 8.0 0.00 0.94 0.94 98 1009.6
20260506143722 6 272 1.6 1.6 0.00 0.94 0.94 98 1009.9
20260506143220 6 350 4.8 4.8 0.00 0.94 0.94 98 1009.8
20260506142718 6 300 0.0 0.0 0.18 0.94 0.94 98 1009.9
20260506142216 6 13 1.6 3.2 0.18 0.94 0.94 98 1009.8
20260506141713 6 43 4.8 4.8 0.00 0.91 0.91 98 1009.9
20260506141212 6 30 1.6 3.2 0.00 0.91 0.91 98 1009.8
20260506140709 6 295 1.6 3.2 0.13 0.91 0.91 97 1010.1
20260506140206 6 39 4.8 4.8 0.13 0.91 0.91 98 1010.0
20260506135703 6 304 3.2 3.2 0.00 0.89 0.89 98 1009.9
20260506135159 5 263 1.6 3.2 0.18 0.89 0.89 98 1009.9
20260506134655 5 349 1.6 3.2 0.00 0.86 0.86 97 1009.9
20260506134152 6 318 1.6 3.2 0.13 0.86 0.86 98 1010.1
20260506133649 6 97 1.6 1.6 0.13 0.86 0.86 97 1009.9
20260506133146 6 110 4.8 4.8 0.00 0.84 0.84 98 1009.8
20260506132643 6 249 0.0 1.6 0.18 0.84 0.84 98 1010.0
20260506132139 6 114 1.6 1.6 0.00 0.81 0.81 98 1009.7
20260506131637 5 248 0.0 0.0 0.00 0.81 0.81 98 1009.7
20260506131133 5 302 1.6 3.2 0.00 0.81 0.81 98 1009.7
20260506130630 5 32 3.2 3.2 0.00 0.81 0.81 98 1009.9
20260506130128 6 250 0.0 1.6 0.13 0.81 0.81 98 1009.9
20260506125626 6 319 3.2 3.2 0.13 0.81 0.81 98 1009.9
20260506125123 6 269 1.6 1.6 0.00 0.79 0.79 98 1010.3
20260506124621 6 193 1.6 1.6 0.00 0.79 0.79 98 1009.8
20260506124119 6 170 1.6 1.6 0.00 0.79 0.79 98 1009.8
20260506123616 6 273 0.0 0.0 0.18 0.79 0.79 98 1009.9
20260506123115 6 349 3.2 3.2 0.18 0.79 0.79 98 1009.7
20260506122611 6 275 0.0 0.0 0.00 0.76 0.76 98 1009.8
20260506122109 6 104 1.6 3.2 0.00 0.76 0.76 98 1010.0
20260506121606 6 240 0.0 1.6 0.18 0.76 0.76 98 1009.7
20260506121102 6 278 1.6 1.6 0.00 0.74 0.74 98 1009.9
20260506120601 6 304 1.6 1.6 0.00 0.74 0.74 98 1010.1
20260506120057 6 270 0.0 0.0 0.00 0.74 0.74 98 1010.0
20260506115556 6 269 0.0 0.0 0.13 0.74 0.74 98 1010.0
20260506115054 6 271 0.0 0.0 0.13 0.74 0.74 98 1010.0
20260506114551 6 249 0.0 0.0 0.00 0.71 0.71 98 1009.8
20260506114049 6 277 0.0 0.0 0.18 0.71 0.71 98 1010.1
20260506113546 6 275 0.0 0.0 0.00 0.69 0.69 98 1010.1
20260506113044 6 276 0.0 0.0 0.13 0.69 0.69 98 1010.3
20260506112540 6 291 0.0 1.6 0.13 0.69 0.69 98 1010.3
20260506112038 6 264 0.0 0.0 0.18 0.66 0.66 97 1010.5
20260506111535 6 272 0.0 0.0 0.18 0.66 0.66 98 1010.4
20260506111032 6 268 0.0 0.0 0.00 0.64 0.64 98 1010.4
20260506110530 6 282 0.0 0.0 0.00 0.64 0.64 97 1010.4
20260506110027 6 279 0.0 0.0 0.13 0.64 0.64 97 1010.3
20260506105523 6 296 0.0 1.6 0.00 0.61 0.61 97 1010.3
20260506105020 6 264 0.0 0.0 0.00 0.61 0.61 97 1010.3
20260506104519 6 270 0.0 0.0 0.00 0.61 0.61 97 1010.2
20260506104016 6 271 0.0 0.0 0.18 0.61 0.61 97 1010.0
20260506103513 6 286 0.0 0.0 0.18 0.61 0.61 97 1010.3
20260506103010 6 295 0.0 1.6 0.00 0.58 0.58 97 1010.3
20260506102508 6 276 0.0 0.0 0.13 0.58 0.58 97 1010.5
20260506102005 6 286 0.0 0.0 0.30 0.58 0.58 97 1010.4
20260506101501 6 270 0.0 0.0 0.30 0.56 0.56 97 1010.5
20260506100959 6 269 0.0 0.0 0.30 0.53 0.53 97 1010.3
20260506100457 6 268 0.0 0.0 0.18 0.51 0.51 97 1010.4
20260506095954 6 267 0.0 0.0 0.13 0.48 0.48 97 1010.2
20260506095453 6 273 0.0 0.0 0.18 0.46 0.46 97 1010.2
20260506094949 6 270 0.0 0.0 0.18 0.43 0.43 97 1010.5
20260506094447 6 273 0.0 0.0 0.13 0.41 0.41 97 1010.4
20260506093944 6 234 1.6 1.6 0.18 0.38 0.38 97 1010.1
20260506093443 6 268 0.0 0.0 0.30 0.38 0.38 97 1010.2
20260506092940 6 262 0.0 0.0 0.30 0.36 0.36 97 1010.0
20260506092438 6 258 0.0 0.0 0.30 0.33 0.33 97 1010.1
20260506091934 6 263 0.0 0.0 0.13 0.30 0.30 97 1010.2
20260506091432 6 264 0.0 0.0 0.18 0.28 0.28 97 1010.3
20260506090930 6 265 0.0 0.0 0.00 0.25 0.25 97 1010.2
20260506090427 6 270 0.0 0.0 0.13 0.25 0.25 97 1010.2
20260506085924 6 262 0.0 0.0 0.13 0.25 0.25 97 1010.1
20260506085420 6 284 0.0 0.0 0.00 0.23 0.23 97 1010.2
20260506084916 6 269 0.0 0.0 0.00 0.23 0.23 97 1010.4
20260506084413 6 280 0.0 0.0 0.18 0.23 0.23 97 1010.4
20260506083910 6 272 0.0 0.0 0.18 0.23 0.23 97 1010.3
20260506083407 6 262 0.0 0.0 0.00 0.20 0.20 97 1010.6
20260506082905 6 262 0.0 0.0 0.00 0.20 0.20 97 1010.3
20260506082401 6 260 0.0 0.0 0.00 0.20 0.20 97 1010.1
20260506081857 6 268 0.0 0.0 0.00 0.20 0.20 97 1010.5
20260506081355 6 262 0.0 0.0 0.00 0.20 0.20 97 1010.5
20260506080853 6 256 0.0 0.0 0.00 0.20 0.20 97 1010.5
20260506080349 6 274 0.0 0.0 0.00 0.20 0.20 97 1010.6
20260506073333 6 264 0.0 0.0 0.00 0.20 0.20 97 1010.6
20260506072830 6 264 0.0 0.0 0.13 0.20 0.20 97 1010.7
20260506072328 6 262 0.0 0.0 0.13 0.20 0.20 97 1010.4
20260506071826 6 294 0.0 0.0 0.00 0.18 0.18 97 1010.7
20260506071323 6 274 0.0 0.0 0.00 0.18 0.18 97 1010.7
20260506070820 6 258 1.6 1.6 0.00 0.18 0.18 97 1010.7
20260506070317 6 295 0.0 0.0 0.18 0.18 0.18 97 1010.6
20260506062254 6 263 0.0 0.0 0.00 0.13 0.13 96 1010.7
20260506061750 6 263 0.0 0.0 0.00 0.13 0.13 97 1010.6
20260506061247 6 252 0.0 0.0 0.00 0.13 0.13 96 1010.5
20260506060745 6 267 0.0 0.0 0.00 0.13 0.13 96 1010.3
20260506060243 6 272 0.0 0.0 0.00 0.13 0.13 96 1010.3
20260506051215 6 249 0.0 0.0 0.00 0.08 0.08 96 1011.1
20260506050713 7 260 0.0 0.0 0.13 0.08 0.08 96 1011.2
20260506050209 7 256 0.0 0.0 0.13 0.08 0.08 96 1011.2
20260506044701 7 260 0.0 0.0 0.18 0.05 0.05 96 1011.5
20260506044157 7 260 0.0 0.0 0.00 0.03 0.03 96 1011.4
20260506043655 7 256 0.0 0.0 0.00 0.03 0.03 96 1011.4
20260506043153 7 263 0.0 0.0 0.00 0.03 0.03 96 1011.7
20260506042652 7 262 0.0 0.0 0.00 0.03 0.03 96 1011.4
20260506042149 7 256 0.0 0.0 0.13 0.03 0.03 96 1011.4
20260506041647 7 254 0.0 0.0 0.13 0.03 0.03 96 1011.2
20260506041143 7 253 0.0 0.0 0.00 0.00 0.00 96 1011.3
20260506040642 7 253 0.0 0.0 0.00 0.00 0.00 96 1011.4
20260506040138 7 270 0.0 0.0 0.18 0.00 0.00 96 1011.3
20260506035635 7 231 1.6 3.2 0.18 1.65 1.65 96 1011.3
20260506035131 7 254 1.6 1.6 0.00 1.63 1.63 96 1011.0
20260506034629 7 264 0.0 0.0 0.13 1.63 1.63 96 1011.4
20260506034126 7 255 0.0 0.0 0.13 1.63 1.63 96 1011.2
20260506033623 7 247 1.6 1.6 0.18 1.60 1.60 96 1011.3
20260506033120 7 252 0.0 1.6 0.18 1.60 1.60 96 1011.5
20260506032617 7 257 0.0 1.6 0.00 1.57 1.57 96 1011.5
20260506032114 7 246 1.6 1.6 0.13 1.57 1.57 96 1011.4
20260506031611 7 237 1.6 3.2 0.13 1.57 1.57 96 1011.4
20260506031108 7 260 0.0 0.0 0.00 1.55 1.55 96 1011.4
20260506030607 7 254 0.0 0.0 0.18 1.55 1.55 95 1011.3
20260506030103 7 259 0.0 0.0 0.00 1.52 1.52 95 1011.1
20260506025600 7 244 1.6 3.2 0.13 1.52 1.52 95 1011.2
20260506025056 7 273 1.6 1.6 0.18 1.50 1.50 95 1011.2
20260506024554 7 260 1.6 1.6 0.36 1.50 1.50 95 1011.3
20260506024050 7 269 0.0 0.0 0.18 1.47 1.47 95 1011.3
20260506023546 7 263 0.0 0.0 0.13 1.45 1.45 95 1011.1
20260506023044 7 263 0.0 0.0 0.30 1.45 1.45 95 1011.0
20260506022541 7 263 0.0 0.0 0.18 1.42 1.42 95 1010.9
20260506022038 7 268 0.0 0.0 0.13 1.40 1.40 95 1011.0
20260506021536 7 259 0.0 0.0 0.13 1.40 1.40 95 1011.0
20260506021033 7 272 0.0 1.6 0.18 1.37 1.37 95 1011.0
20260506020530 7 173 1.6 3.2 0.30 1.37 1.37 95 1011.0
20260506020028 7 270 0.0 1.6 0.30 1.35 1.35 95 1011.1
20260506015525 7 271 3.2 3.2 0.30 1.32 1.32 95 1011.0
20260506015022 8 225 3.2 3.2 0.30 1.30 1.30 95 1010.8
20260506014519 8 253 1.6 1.6 0.30 1.24 1.24 95 1010.5
20260506014015 8 263 1.6 1.6 0.18 1.22 1.22 95 1010.7
20260506013513 8 286 0.0 1.6 0.30 1.19 1.19 94 1010.4
20260506013010 8 252 1.6 1.6 0.36 1.17 1.17 94 1010.5
20260506012506 8 234 1.6 1.6 0.30 1.14 1.14 94 1010.3
20260506012003 8 238 3.2 3.2 0.30 1.12 1.12 94 1010.0
20260506011500 8 254 1.6 3.2 0.30 1.09 1.09 94 1010.4